TimeCDT,TemperatureF,Dew PointF,Humidity,Sea Level PressureIn,VisibilityMPH,Wind Direction,Wind SpeedMPH,Gust SpeedMPH,PrecipitationIn,Events,Conditions,WindDirDegrees,DateUTC
12:54 AM,57.9,52.0,81,30.15,10.0,Calm,Calm,-,N/A,,Clear,0,2013-08-15 05:54:00
1:54 AM,57.0,51.1,81,30.14,10.0,NNE,3.5,-,N/A,,Clear,30,2013-08-15 06:54:00
2:54 AM,55.9,51.1,84,30.13,10.0,NNE,3.5,-,N/A,,Clear,30,2013-08-15 07:54:00
3:54 AM,54.0,51.1,90,30.13,10.0,NE,5.8,-,N/A,,Clear,50,2013-08-15 08:54:00
4:54 AM,54.0,51.1,90,30.12,10.0,ENE,3.5,-,N/A,,Clear,60,2013-08-15 09:54:00
5:54 AM,54.0,51.1,90,30.14,10.0,Calm,Calm,-,N/A,,Clear,0,2013-08-15 10:54:00
6:54 AM,55.9,52.0,87,30.14,10.0,Calm,Calm,-,N/A,,Clear,0,2013-08-15 11:54:00
7:54 AM,59.0,53.1,81,30.15,10.0,NE,4.6,-,N/A,,Clear,50,2013-08-15 12:54:00
8:54 AM,63.0,54.0,72,30.15,10.0,ENE,5.8,-,N/A,,Clear,60,2013-08-15 13:54:00
9:54 AM,68.0,55.0,63,30.15,10.0,East,5.8,-,N/A,,Clear,80,2013-08-15 14:54:00
10:54 AM,71.1,54.0,55,30.16,10.0,ENE,6.9,-,N/A,,Clear,70,2013-08-15 15:54:00
11:54 AM,72.0,52.0,49,30.14,10.0,Variable,4.6,-,N/A,,Partly Cloudy,0,2013-08-15 16:54:00
12:54 PM,73.9,53.1,48,30.12,10.0,NNE,8.1,-,N/A,,Partly Cloudy,30,2013-08-15 17:54:00
1:54 PM,75.9,53.1,45,30.10,10.0,NE,8.1,-,N/A,,Clear,40,2013-08-15 18:54:00
2:54 PM,77.0,53.1,43,30.09,10.0,Variable,5.8,-,N/A,,Clear,0,2013-08-15 19:54:00
3:54 PM,77.0,54.0,45,30.07,10.0,NNE,5.8,-,N/A,,Clear,30,2013-08-15 20:54:00
4:54 PM,75.9,54.0,46,30.07,10.0,Variable,6.9,-,N/A,,Scattered Clouds,0,2013-08-15 21:54:00
5:54 PM,75.0,55.0,50,30.07,10.0,NNE,11.5,-,N/A,,Clear,30,2013-08-15 22:54:00
6:54 PM,72.0,54.0,53,30.08,10.0,NNE,8.1,-,N/A,,Clear,20,2013-08-15 23:54:00
7:54 PM,66.0,55.0,68,30.09,10.0,NE,5.8,-,N/A,,Clear,40,2013-08-16 00:54:00
8:54 PM,64.0,55.0,73,30.09,10.0,Calm,Calm,-,N/A,,Clear,0,2013-08-16 01:54:00
9:54 PM,63.0,55.0,75,30.10,10.0,NNE,3.5,-,N/A,,Clear,30,2013-08-16 02:54:00
10:54 PM,62.1,55.0,78,30.10,10.0,Calm,Calm,-,N/A,,Clear,0,2013-08-16 03:54:00